(195978) = 2002 RG193 = 2006 DX32

Discovered at Palomar on 2002-09-12 by NEAT.

Orbit

Orbit type: Main Belt

Note: WebGL enabled browser required.

epoch2023-02-25.0
epoch JD2460000.5
perihelion date2018-12-11.25798
perihelion JD2458463.75798
argument of perihelion (°)272.75298
ascending node (°)356.88644
inclination (°)4.40865
eccentricity0.1393013
perihelion distance (AU)2.7685866
Tisserand w.r.t. Jupiter3.2
ΔV w.r.t. Earth (km/sec)10.5
semimajor axis (AU)3.2166732
mean anomaly (°)262.53934
mean daily motion (°/day)0.17084150
aphelion distance (AU)3.665
period (years)5.77
P-vector [x]-0.00613278
P-vector [y]-0.88421472
P-vector [z]-0.46704039
Q-vector [x]0.99997248
Q-vector [y]-0.00737280
Q-vector [z]0.00082761
absolute magnitude15.51
phase slope0.15
uncertainty0
referenceMPEC 2023-F215
observations used480
oppositions18
arc length (days)9255
first opposition used1997
last opposition used2023
residual rms (arc-secs)0.73
perturbers coarse indicatorM-v
perturbers precise indicator003Ek
first observation date used1997-11-23.0
last observation date used2023-03-27.0
computer nameMPCLINUX
JD of orbit computation2456966.872174
perihelion JD uncertainty (days)9.7820E-05
argument of perihelion uncertainty (°)4.4286E-05
ascending node uncertainty (°)4.0693E-05
inclination uncertainty (°)4.7304E-06
eccentricity uncertainty 2.8398E-08
perihelion distance uncertainty (AU)8.9039E-08
Minimum Orbit Intersection Distances (in AU)
for orbit epoch: 2460000.5, reference: E2023-FI9
Mercury2.30367
Venus2.04351
Earth1.75673
Mars1.29027
Jupiter1.46782
Saturn5.42386
Uranus15.0442
Neptune26.3517

Observations

485 total observations over interval: 1997 11 23.27777 – 2023 03 27.610243
These data are available for download (format description).

Date (UT) J2000 RA J2000 Dec Magn Location Ref
1997 11 23.27777 02 25 32.86 +19 14 49.0 20.7 V 691 – Steward Observatory, Kitt Peak-Spacewatch MPS 167022
1997 11 23.30018 02 25 31.90 +19 14 44.7 20.3 V 691 – Steward Observatory, Kitt Peak-Spacewatch MPS 167022
1997 11 23.32237 02 25 30.97 +19 14 40.3 20.4 V 691 – Steward Observatory, Kitt Peak-Spacewatch MPS 167022
2002 09 07.27715 23 25 24.66 -04 50 51.0 20.3   704 – Lincoln Laboratory ETS, New Mexico MPS 167022
2002 09 07.29117 23 25 23.99 -04 50 54.5 19.7   704 – Lincoln Laboratory ETS, New Mexico MPS 167022
2002 09 07.31926 23 25 22.43 -04 51 00.9 20.2   704 – Lincoln Laboratory ETS, New Mexico MPS 167022
2002 09 12.22229 23 21 35.97 -05 08 14.3 19.5   644 – Palomar Mountain/NEAT MPS 61819
2002 09 12.29317 23 21 32.60 -05 08 29.0 19.6   644 – Palomar Mountain/NEAT MPS 61819
2002 09 12.35760 23 21 29.53 -05 08 42.7 19.6   644 – Palomar Mountain/NEAT MPS 61819
2002 09 15.42357 23 19 08.07 -05 19 19.0 20.0   644 – Palomar Mountain/NEAT MPS 61819
2002 09 15.44455 23 19 07.08 -05 19 23.2 19.8   644 – Palomar Mountain/NEAT MPS 61819
2002 09 15.46685 23 19 06.02 -05 19 27.4 20.2   644 – Palomar Mountain/NEAT MPS 61819
2002 10 03.19712 23 06 49.37 -06 11 13.5 19.8   704 – Lincoln Laboratory ETS, New Mexico MPS 63616
2002 10 03.21281 23 06 48.82 -06 11 16.0 20.0   704 – Lincoln Laboratory ETS, New Mexico MPS 63616
2002 10 03.22862 23 06 48.20 -06 11 17.5 19.7   704 – Lincoln Laboratory ETS, New Mexico MPS 63616
2002 10 03.24433 23 06 47.56 -06 11 19.6 20.1   704 – Lincoln Laboratory ETS, New Mexico MPS 63616
2003 12 01.26971 03 29 39.09 +24 30 04.7 21.2 V 691 – Steward Observatory, Kitt Peak-Spacewatch MPS 167022
2003 12 01.29795 03 29 37.68 +24 30 00.0 21.4 V 691 – Steward Observatory, Kitt Peak-Spacewatch MPS 167022
2003 12 01.32550 03 29 36.35 +24 29 55.4 21.0 V 691 – Steward Observatory, Kitt Peak-Spacewatch MPS 167022
2005 02 04.24994 07 27 31.47 +27 08 19.7 20.4 R G96 – Mt. Lemmon Survey MPS 167022
2005 02 04.25777 07 27 31.16 +27 08 20.1 20.4 R G96 – Mt. Lemmon Survey MPS 167022
2005 02 04.26565 07 27 30.83 +27 08 20.3 20.8 R G96 – Mt. Lemmon Survey MPS 167022
2005 02 04.27347 07 27 30.44 +27 08 20.3 20.9 R G96 – Mt. Lemmon Survey MPS 167022
2006 01 07.51126 12 09 23.54 +00 06 52.3 21.7 V G96 – Mt. Lemmon Survey MPS 167022
2006 01 07.51849 12 09 23.68 +00 06 50.6 21.4 V G96 – Mt. Lemmon Survey MPS 167022
2006 01 07.52571 12 09 23.79 +00 06 49.7 21.2 V G96 – Mt. Lemmon Survey MPS 167022
2006 01 07.53296 12 09 23.94 +00 06 48.3 21.2 V G96 – Mt. Lemmon Survey MPS 167022
2006 02 07.40980 12 10 36.48 -00 23 28.5 20.7 V G96 – Mt. Lemmon Survey MPS 167022
2006 02 07.41667 12 10 36.33 -00 23 27.7 20.5 V G96 – Mt. Lemmon Survey MPS 167022
2006 02 07.42355 12 10 36.22 -00 23 27.3 21.2 V G96 – Mt. Lemmon Survey MPS 167022
2006 02 07.43041 12 10 36.12 -00 23 27.1 21.0 V G96 – Mt. Lemmon Survey MPS 167022
2006 02 20.39886 12 05 25.69 -00 02 36.0   691 – Steward Observatory, Kitt Peak-Spacewatch MPS 165235
2006 02 20.41615 12 05 25.12 -00 02 33.5   691 – Steward Observatory, Kitt Peak-Spacewatch MPS 165235
2006 02 20.42079 12 05 24.97 -00 02 33.1 20.3 V G96 – Mt. Lemmon Survey MPS 165235
2006 02 20.42765 12 05 24.72 -00 02 31.9 21.5 V G96 – Mt. Lemmon Survey MPS 165235
2006 02 20.43454 12 05 24.50 -00 02 30.4 20.4 V G96 – Mt. Lemmon Survey MPS 165235
2006 02 20.43471 12 05 24.54 -00 02 31.1   691 – Steward Observatory, Kitt Peak-Spacewatch MPS 165235
2006 02 20.44813 12 05 24.07 -00 02 28.9 20.9 V G96 – Mt. Lemmon Survey MPS 165235
2006 02 24.34736 12 03 14.94 +00 07 17.3 20.3 V 691 – Steward Observatory, Kitt Peak-Spacewatch MPS 165235
2006 02 24.36464 12 03 14.32 +00 07 20.0 20.3 V 691 – Steward Observatory, Kitt Peak-Spacewatch MPS 165235
2006 02 24.38183 12 03 13.69 +00 07 22.8 20.2 V 691 – Steward Observatory, Kitt Peak-Spacewatch MPS 165235
2006 02 25.34441 12 02 39.51 +00 10 00.0 19.9 V G96 – Mt. Lemmon Survey MPS 165235
2006 02 25.35038 12 02 39.30 +00 10 01.2 20.1 V G96 – Mt. Lemmon Survey MPS 165235
2006 02 25.35609 12 02 39.08 +00 10 01.9 20.1 V G96 – Mt. Lemmon Survey MPS 165235
2006 03 02.30943 11 59 30.47 +00 24 49.6 20.4 V 691 – Steward Observatory, Kitt Peak-Spacewatch MPS 165235
2006 03 02.32670 11 59 29.86 +00 24 52.9 19.8 V 691 – Steward Observatory, Kitt Peak-Spacewatch MPS 165235
2006 03 02.34394 11 59 29.03 +00 24 56.3 20.1 V 691 – Steward Observatory, Kitt Peak-Spacewatch MPS 165235
2006 03 06.31678 11 56 44.45 +00 38 03.8   691 – Steward Observatory, Kitt Peak-Spacewatch MPS 166225
2006 03 06.33413 11 56 43.69 +00 38 07.4   691 – Steward Observatory, Kitt Peak-Spacewatch MPS 166225
2006 03 06.35147 11 56 42.94 +00 38 10.9   691 – Steward Observatory, Kitt Peak-Spacewatch MPS 166225
2006 03 21.29943 11 45 24.87 +01 32 58.0 19.7 V G96 – Mt. Lemmon Survey MPS 167022
2006 03 21.30501 11 45 24.66 +01 32 59.4 19.6 V G96 – Mt. Lemmon Survey MPS 167022
2006 03 21.31042 11 45 24.33 +01 33 00.4 19.7 V G96 – Mt. Lemmon Survey MPS 167022
2008 08 24.40795 00 54 01.90 +06 21 34.6   691 – Steward Observatory, Kitt Peak-Spacewatch MPS 254429
2008 08 24.42552 00 54 01.54 +06 21 33.5   691 – Steward Observatory, Kitt Peak-Spacewatch MPS 254429
2008 08 24.44309 00 54 01.16 +06 21 33.0   691 – Steward Observatory, Kitt Peak-Spacewatch MPS 254429
2008 09 03.36398 00 49 42.06 +06 07 46.7 20.2 V 691 – Steward Observatory, Kitt Peak-Spacewatch MPS 255190
2008 09 03.38155 00 49 41.50 +06 07 44.7 20.4 V 691 – Steward Observatory, Kitt Peak-Spacewatch MPS 255190
2008 09 03.39913 00 49 40.92 +06 07 42.5 20.5 V 691 – Steward Observatory, Kitt Peak-Spacewatch MPS 255190
2008 09 19.39392 00 39 28.29 +05 24 47.1   691 – Steward Observatory, Kitt Peak-Spacewatch MPS 256603
2008 09 19.41148 00 39 27.51 +05 24 43.6   691 – Steward Observatory, Kitt Peak-Spacewatch MPS 256603
2008 09 19.42905 00 39 26.72 +05 24 40.3   691 – Steward Observatory, Kitt Peak-Spacewatch MPS 256603
2008 09 24.24695 00 35 52.00 +05 08 07.4 20.1   704 – Lincoln Laboratory ETS, New Mexico MPS 256603
2008 09 24.25904 00 35 51.46 +05 08 04.2 20.0   704 – Lincoln Laboratory ETS, New Mexico MPS 256603
2008 09 24.27114 00 35 50.90 +05 08 01.3 20.4   704 – Lincoln Laboratory ETS, New Mexico MPS 256603
2008 09 24.28320 00 35 50.32 +05 07 59.5 20.1   704 – Lincoln Laboratory ETS, New Mexico MPS 256603
2008 09 29.28198 00 32 00.97 +04 49 47.9 19.9   704 – Lincoln Laboratory ETS, New Mexico MPS 257830
2008 09 29.29427 00 32 00.38 +04 49 46.0 20.2   704 – Lincoln Laboratory ETS, New Mexico MPS 257830
2008 09 29.30654 00 31 59.84 +04 49 41.9 20.2   704 – Lincoln Laboratory ETS, New Mexico MPS 257830
2008 09 29.31885 00 31 59.21 +04 49 41.4 20.4   704 – Lincoln Laboratory ETS, New Mexico MPS 257830
2008 10 01.32110 00 30 26.96 +04 42 13.3 19.7 V G96 – Mt. Lemmon Survey MPS 257830
2008 10 01.32598 00 30 26.71 +04 42 12.3 19.8 V G96 – Mt. Lemmon Survey MPS 257830
2008 10 01.33088 00 30 26.46 +04 42 11.2 19.7 V G96 – Mt. Lemmon Survey MPS 257830
2008 10 01.33575 00 30 26.24 +04 42 10.0 19.9 V G96 – Mt. Lemmon Survey MPS 257830
2008 10 02.37898 00 29 38.18 +04 38 16.7   291 – LPL/Spacewatch II MPS 257830
2008 10 02.38270 00 29 38.00 +04 38 15.8   291 – LPL/Spacewatch II MPS 257830
2008 10 02.38640 00 29 37.83 +04 38 15.1   291 – LPL/Spacewatch II MPS 257830
2008 10 04.89721 00 27 43.23 +04 28 52.1 20.1 V J75 – OAM Observatory, La Sagra MPS 259167
2008 10 04.91052 00 27 42.64 +04 28 49.6 19.5 V J75 – OAM Observatory, La Sagra MPS 259167
2008 10 04.92375 00 27 42.01 +04 28 46.0 20.3 V J75 – OAM Observatory, La Sagra MPS 259167
2008 10 17.21981 00 18 54.99 +03 44 58.8 20.3 V 691 – Steward Observatory, Kitt Peak-Spacewatch MPS 260224
2008 10 17.25671 00 18 53.49 +03 44 51.6 20.1 V 691 – Steward Observatory, Kitt Peak-Spacewatch MPS 260224
2008 10 17.29361 00 18 52.01 +03 44 44.1 20.0 V 691 – Steward Observatory, Kitt Peak-Spacewatch MPS 260224
2008 10 18.10768 00 18 20.57 +03 42 04.4 20.1 V 691 – Steward Observatory, Kitt Peak-Spacewatch MPS 260536
2008 10 18.13423 00 18 19.54 +03 41 59.5 20.0 V 691 – Steward Observatory, Kitt Peak-Spacewatch MPS 260536
2008 10 18.16077 00 18 18.47 +03 41 54.4 20.1 V 691 – Steward Observatory, Kitt Peak-Spacewatch MPS 260536
